This is the latest recevied weather packets stored in our database for station/object K4DNM. If no packets are shown the sender has not sent any weather packets the latest 10 day(s).
| Time | Temp. | Humidity | Pressure | Rain* | Wind** | Luminosity | Snow |
|---|---|---|---|---|---|---|---|
| 1777832214 | 18.89° C | 34% | 1016.4 hPa | 0 mm | - | 947 W/m² | - |
| 1777831913 | 18.33° C | 35% | 1016.5 hPa | 0 mm | - | 954 W/m² | - |
| 1777831612 | 18.33° C | 38% | 1016.5 hPa | 0 mm | - | 963 W/m² | - |
| 1777831312 | 17.78° C | 34% | 1016.6 hPa | 0 mm | - | 970 W/m² | - |
| 1777831011 | 18.33° C | 35% | 1016.7 hPa | 0 mm | - | 978 W/m² | - |
| 1777830710 | 18.33° C | 35% | 1016.7 hPa | 0 mm | - | 978 W/m² | - |
| 1777830409 | 18.33° C | 32% | 1016.8 hPa | 0 mm | - | 978 W/m² | - |
| 1777830106 | 17.78° C | 34% | 1016.8 hPa | 0 mm | - | 978 W/m² | - |
| 1777829808 | 17.78° C | 34% | 1016.8 hPa | 0 mm | - | 982 W/m² | - |
| 1777829505 | 18.33° C | 36% | 1016.9 hPa | 0 mm | - | 985 W/m² | - |
| 1777829208 | 17.78° C | 40% | 1016.8 hPa | 0 mm | - | 988 W/m² | - |
| 1777828908 | 17.78° C | 37% | 1016.9 hPa | 0 mm | - | 995 W/m² | - |
| 1777828609 | 17.78° C | 35% | 1016.9 hPa | 0 mm | - | 1000 W/m² | - |
| 1777828368 | 17.78° C | 36% | 1017 hPa | 0 mm | - | 1000 W/m² | - |
| 1777828007 | 17.22° C | 40% | 1016.9 hPa | 0 mm | - | 998 W/m² | - |
| 1777827706 | 17.22° C | 37% | 1017 hPa | 0 mm | - | 999 W/m² | - |
| 1777827406 | 17.22° C | 40% | 1017.3 hPa | 0 mm | - | 999 W/m² | - |
| 1777827105 | 16.67° C | 39% | 1017.3 hPa | 0 mm | - | 998 W/m² | - |
| 1777826806 | 16.67° C | 39% | 1017.2 hPa | 0 mm | - | 996 W/m² | - |
| 1777826505 | 16.67° C | 39% | 1017.3 hPa | 0 mm | - | 994 W/m² | - |
| 1777826204 | 16.67° C | 39% | 1017.4 hPa | 0 mm | - | 985 W/m² | - |
| 1777825905 | 16.67° C | 42% | 1017.5 hPa | 0 mm | - | 979 W/m² | - |
| 1777825605 | 16.67° C | 40% | 1017.4 hPa | 0 mm | - | 978 W/m² | - |
| 1777825305 | 16.67° C | 40% | 1017.5 hPa | 0 mm | - | 978 W/m² | - |
| 1777825016 | 16.11° C | 46% | 1017.6 hPa | 0 mm | - | 978 W/m² | - |
* Rain latest hour (hover to see other rain measurements)
** Current wind speed in m/s (hover to see current wind gust speed)